Time,TemperatureF,DewpointF,PressureIn,WindDirection,WindDirectionDegrees,WindSpeedMPH,WindSpeedGustMPH,Humidity,HourlyPrecipIn,Conditions,Clouds,dailyrainin,SoftwareType,DateUTC
2013-05-27 00:02:00,57.0,54.0,-100.00,East,80,12.0,19.0,88,0.00,,,-99.99,,2013-05-27 05:02:00,
2013-05-27 00:12:00,57.0,54.0,-100.00,East,90,13.0,18.0,88,0.00,,,-99.99,,2013-05-27 05:12:00,
2013-05-27 00:22:00,57.0,54.0,-100.00,ENE,75,12.0,14.0,88,0.00,,,-99.99,,2013-05-27 05:22:00,
2013-05-27 00:32:00,57.0,54.0,-100.00,ENE,65,11.0,14.0,88,0.00,,,-99.99,,2013-05-27 05:32:00,
2013-05-27 00:42:00,57.0,54.0,-100.00,ENE,65,11.0,14.0,88,0.00,,,-99.99,,2013-05-27 05:42:00,
2013-05-27 00:52:00,57.0,54.0,-100.00,ENE,70,11.0,16.0,88,0.00,,,-99.99,,2013-05-27 05:52:00,
2013-05-27 01:01:00,57.0,54.0,-100.00,ENE,70,11.0,16.0,88,0.00,,,-99.99,,2013-05-27 06:01:00,
2013-05-27 01:11:00,57.0,54.0,-100.00,ENE,65,11.0,15.0,88,0.00,,,-99.99,,2013-05-27 06:11:00,
2013-05-27 01:21:00,57.0,54.0,-100.00,ENE,65,10.0,15.0,88,0.00,,,-99.99,,2013-05-27 06:21:00,
2013-05-27 01:32:00,57.0,54.0,-100.00,ENE,60,9.0,12.0,88,0.00,,,-99.99,,2013-05-27 06:32:00,
2013-05-27 01:42:00,57.0,54.0,-100.00,ENE,60,9.0,12.0,88,0.00,,,-99.99,,2013-05-27 06:42:00,
2013-05-27 01:52:00,57.0,54.0,-100.00,NE,55,9.0,12.0,88,0.00,,,-99.99,,2013-05-27 06:52:00,
2013-05-27 02:02:00,57.0,54.0,-100.00,NE,55,9.0,12.0,88,0.00,,,-99.99,,2013-05-27 07:02:00,
2013-05-27 02:11:00,57.0,54.0,-100.00,NE,45,6.0,11.0,88,0.00,,,-99.99,,2013-05-27 07:11:00,
2013-05-27 02:21:00,57.0,54.0,-100.00,NNE,30,2.0,7.0,88,0.00,,,-99.99,,2013-05-27 07:21:00,
2013-05-27 02:32:00,58.0,54.0,-100.00,North,355,1.0,5.0,88,0.00,,,-99.99,,2013-05-27 07:32:00,
2013-05-27 02:41:00,58.0,54.0,-100.00,North,355,1.0,5.0,88,0.00,,,-99.99,,2013-05-27 07:41:00,
2013-05-27 02:52:00,57.0,54.0,-100.00,WSW,250,3.0,6.0,88,0.00,,,-99.99,,2013-05-27 07:52:00,
2013-05-27 03:02:00,57.0,54.0,-100.00,WSW,250,3.0,6.0,88,0.00,,,-99.99,,2013-05-27 08:02:00,
2013-05-27 03:11:00,57.0,54.0,-100.00,NNW,345,1.0,3.0,88,0.00,,,-99.99,,2013-05-27 08:11:00,
2013-05-27 03:22:00,57.0,54.0,-100.00,NNW,345,1.0,3.0,88,0.00,,,-99.99,,2013-05-27 08:22:00,
2013-05-27 03:32:00,58.0,54.0,-100.00,East,80,10.0,12.0,88,0.00,,,-99.99,,2013-05-27 08:32:00,
2013-05-27 03:42:00,58.0,54.0,-100.00,East,80,10.0,12.0,88,0.00,,,-99.99,,2013-05-27 08:42:00,
2013-05-27 03:52:00,58.0,54.0,-100.00,East,85,14.0,18.0,88,0.00,,,-99.99,,2013-05-27 08:52:00,
2013-05-27 04:02:00,58.0,54.0,-100.00,East,85,14.0,18.0,88,0.00,,,-99.99,,2013-05-27 09:02:00,
2013-05-27 04:11:00,58.0,54.0,-100.00,East,80,14.0,19.0,88,0.00,,,-99.99,,2013-05-27 09:11:00,
2013-05-27 04:21:00,58.0,54.0,-100.00,East,80,14.0,19.0,88,0.00,,,-99.99,,2013-05-27 09:21:00,
2013-05-27 04:33:00,58.0,54.0,-100.00,East,100,14.0,21.0,88,0.00,,,-99.99,,2013-05-27 09:33:00,
2013-05-27 04:42:00,58.0,54.0,-100.00,East,100,14.0,21.0,88,0.00,,,-99.99,,2013-05-27 09:42:00,
2013-05-27 04:52:00,58.0,55.0,-100.00,ESE,105,14.0,22.0,88,0.00,,,-99.99,,2013-05-27 09:52:00,
2013-05-27 05:02:00,58.0,55.0,-100.00,ESE,105,14.0,22.0,88,0.00,,,-99.99,,2013-05-27 10:02:00,
2013-05-27 05:12:00,58.0,55.0,-100.00,East,100,14.0,22.0,88,0.00,,,-99.99,,2013-05-27 10:12:00,
2013-05-27 05:22:00,58.0,55.0,-100.00,WNW,290,11.0,18.0,88,0.07,,,-99.99,,2013-05-27 10:22:00,
2013-05-27 05:32:00,59.0,56.0,-100.00,West,260,3.0,17.0,88,0.85,,,-99.99,,2013-05-27 10:32:00,
2013-05-27 05:42:00,59.0,56.0,-100.00,West,260,3.0,17.0,88,0.85,,,-99.99,,2013-05-27 10:42:00,
2013-05-27 05:52:00,59.0,56.0,-100.00,West,260,3.0,17.0,88,0.85,,,-99.99,,2013-05-27 10:52:00,
2013-05-27 06:02:00,59.0,56.0,-100.00,West,260,3.0,17.0,88,0.85,,,-99.99,,2013-05-27 11:02:00,
2013-05-27 06:11:00,59.0,55.0,-100.00,ESE,110,3.0,4.0,88,0.04,,,-99.99,,2013-05-27 11:11:00,
2013-05-27 06:22:00,59.0,55.0,-100.00,ESE,110,3.0,4.0,88,0.04,,,-99.99,,2013-05-27 11:22:00,
2013-05-27 06:32:00,58.0,55.0,-100.00,ESE,110,9.0,11.0,88,0.23,,,-99.99,,2013-05-27 11:32:00,
2013-05-27 06:42:00,58.0,55.0,-100.00,ESE,110,9.0,11.0,88,0.23,,,-99.99,,2013-05-27 11:42:00,
2013-05-27 06:52:00,58.0,55.0,-100.00,ESE,110,9.0,11.0,88,0.23,,,-99.99,,2013-05-27 11:52:00,
2013-05-27 07:01:00,58.0,55.0,-100.00,ESE,110,9.0,11.0,88,0.23,,,-99.99,,2013-05-27 12:01:00,
2013-05-27 07:11:00,59.0,56.0,-100.00,ESE,110,13.0,17.0,88,0.20,,,-99.99,,2013-05-27 12:11:00,
2013-05-27 07:21:00,59.0,56.0,-100.00,SE,130,15.0,20.0,88,0.23,,,-99.99,,2013-05-27 12:21:00,
2013-05-27 07:32:00,59.0,56.0,-100.00,SE,125,14.0,21.0,88,0.54,,,-99.99,,2013-05-27 12:32:00,
2013-05-27 07:42:00,59.0,56.0,-100.00,SE,125,14.0,21.0,88,0.54,,,-99.99,,2013-05-27 12:42:00,
2013-05-27 07:52:00,60.0,56.0,-100.00,SE,125,21.0,27.0,88,0.61,,,-99.99,,2013-05-27 12:52:00,
2013-05-27 08:01:00,60.0,56.0,-100.00,SE,125,21.0,27.0,88,0.61,,,-99.99,,2013-05-27 13:01:00,
2013-05-27 08:11:00,60.0,56.0,-100.00,SE,130,29.0,38.0,88,0.34,,,-99.99,,2013-05-27 13:11:00,
2013-05-27 08:22:00,60.0,57.0,-100.00,SE,125,35.0,50.0,89,0.13,,,-99.99,,2013-05-27 13:22:00,
2013-05-27 08:32:00,60.0,57.0,-100.00,SE,125,35.0,50.0,89,0.13,,,-99.99,,2013-05-27 13:32:00,
2013-05-27 08:41:00,60.0,57.0,-100.00,SE,125,35.0,50.0,89,0.13,,,-99.99,,2013-05-27 13:41:00,
2013-05-27 08:52:00,60.0,57.0,-100.00,SSE,150,26.0,48.0,88,0.00,,,-99.99,,2013-05-27 13:52:00,
2013-05-27 09:01:00,60.0,57.0,-100.00,SSE,150,26.0,48.0,88,0.00,,,-99.99,,2013-05-27 14:01:00,
2013-05-27 09:11:00,61.0,58.0,-100.00,SSE,150,21.0,35.0,88,0.00,,,-99.99,,2013-05-27 14:11:00,
2013-05-27 09:21:00,61.0,58.0,-100.00,SSE,150,21.0,35.0,88,0.00,,,-99.99,,2013-05-27 14:21:00,
2013-05-27 09:32:00,62.0,58.0,-100.00,West,265,12.0,19.0,88,0.00,,,-99.99,,2013-05-27 14:32:00,
2013-05-27 09:42:00,62.0,58.0,-100.00,West,265,12.0,19.0,88,0.00,,,-99.99,,2013-05-27 14:42:00,
2013-05-27 09:51:00,62.0,58.0,-100.00,West,260,9.0,21.0,86,0.00,,,-99.99,,2013-05-27 14:51:00,
2013-05-27 10:01:00,62.0,58.0,-100.00,West,260,9.0,21.0,86,0.00,,,-99.99,,2013-05-27 15:01:00,
2013-05-27 10:11:00,62.0,58.0,-100.00,West,260,9.0,21.0,86,0.00,,,-99.99,,2013-05-27 15:11:00,
2013-05-27 10:21:00,62.0,57.0,-100.00,WNW,295,8.0,14.0,83,0.00,,,-99.99,,2013-05-27 15:21:00,
2013-05-27 10:33:00,62.0,57.0,-100.00,West,280,5.0,12.0,82,0.00,,,-99.99,,2013-05-27 15:33:00,
2013-05-27 10:43:00,62.0,57.0,-100.00,West,280,5.0,12.0,82,0.00,,,-99.99,,2013-05-27 15:43:00,
2013-05-27 10:53:00,65.0,59.0,-100.00,ESE,110,1.0,2.0,80,0.00,,,-99.99,,2013-05-27 15:53:00,
2013-05-27 11:03:00,65.0,59.0,-100.00,ESE,110,1.0,2.0,80,0.00,,,-99.99,,2013-05-27 16:03:00,
2013-05-27 11:12:00,65.0,57.0,-100.00,SSW,210,4.0,7.0,77,0.00,,,-99.99,,2013-05-27 16:12:00,
2013-05-27 11:23:00,65.0,56.0,-100.00,SSW,205,6.0,8.0,72,0.00,,,-99.99,,2013-05-27 16:23:00,
2013-05-27 11:33:00,67.0,57.0,-100.00,SW,220,5.0,10.0,70,0.00,,,-99.99,,2013-05-27 16:33:00,
2013-05-27 11:42:00,67.0,57.0,-100.00,SW,220,5.0,10.0,70,0.00,,,-99.99,,2013-05-27 16:42:00,
2013-05-27 11:52:00,67.0,57.0,-100.00,SW,220,5.0,10.0,70,0.00,,,-99.99,,2013-05-27 16:52:00,
2013-05-27 12:02:00,67.0,57.0,-100.00,SW,220,5.0,10.0,70,0.00,,,-99.99,,2013-05-27 17:02:00,
2013-05-27 12:11:00,69.0,58.0,-100.00,ESE,120,2.0,6.0,67,0.00,,,-99.99,,2013-05-27 17:11:00,
2013-05-27 12:22:00,69.0,57.0,-100.00,ENE,60,7.0,8.0,66,0.00,,,-99.99,,2013-05-27 17:22:00,
2013-05-27 12:32:00,69.0,57.0,-100.00,East,90,4.0,9.0,66,0.00,,,-99.99,,2013-05-27 17:32:00,
2013-05-27 12:43:00,69.0,57.0,-100.00,East,90,4.0,9.0,66,0.00,,,-99.99,,2013-05-27 17:43:00,
2013-05-27 12:52:00,70.0,56.0,-100.00,SSW,210,4.0,8.0,62,0.00,,,-99.99,,2013-05-27 17:52:00,
2013-05-27 13:02:00,70.0,56.0,-100.00,SSW,210,4.0,8.0,62,0.00,,,-99.99,,2013-05-27 18:02:00,
2013-05-27 13:11:00,69.0,56.0,-100.00,SSW,200,4.0,6.0,62,0.00,,,-99.99,,2013-05-27 18:11:00,
2013-05-27 13:22:00,69.0,56.0,-100.00,SSW,200,4.0,6.0,62,0.00,,,-99.99,,2013-05-27 18:22:00,
2013-05-27 13:32:00,69.0,56.0,-100.00,SSW,200,4.0,6.0,62,0.00,,,-99.99,,2013-05-27 18:32:00,
2013-05-27 13:42:00,69.0,56.0,-100.00,SSW,200,4.0,6.0,62,0.00,,,-99.99,,2013-05-27 18:42:00,
2013-05-27 14:22:00,70.0,57.0,-100.00,SSW,200,3.0,9.0,62,0.00,,,-99.99,,2013-05-27 19:22:00,
2013-05-27 14:32:00,70.0,57.0,-100.00,SE,125,6.0,11.0,63,0.00,,,-99.99,,2013-05-27 19:32:00,
2013-05-27 14:42:00,70.0,57.0,-100.00,SE,125,6.0,11.0,63,0.00,,,-99.99,,2013-05-27 19:42:00,
2013-05-27 14:52:00,71.0,58.0,-100.00,South,190,6.0,8.0,65,0.00,,,-99.99,,2013-05-27 19:52:00,
2013-05-27 15:01:00,71.0,58.0,-100.00,South,190,6.0,8.0,65,0.00,,,-99.99,,2013-05-27 20:01:00,
2013-05-27 15:11:00,71.0,59.0,-100.00,South,170,7.0,11.0,64,0.00,,,-99.99,,2013-05-27 20:11:00,
2013-05-27 15:22:00,71.0,59.0,-100.00,South,190,4.0,9.0,64,0.00,,,-99.99,,2013-05-27 20:22:00,
2013-05-27 15:32:00,71.0,59.0,-100.00,South,180,7.0,10.0,65,0.00,,,-99.99,,2013-05-27 20:32:00,
2013-05-27 15:42:00,71.0,59.0,-100.00,South,180,7.0,10.0,65,0.00,,,-99.99,,2013-05-27 20:42:00,
2013-05-27 15:52:00,72.0,59.0,-100.00,SE,130,6.0,8.0,65,0.00,,,-99.99,,2013-05-27 20:52:00,
2013-05-27 16:01:00,72.0,59.0,-100.00,SE,130,6.0,8.0,65,0.00,,,-99.99,,2013-05-27 21:01:00,
2013-05-27 16:12:00,72.0,59.0,-100.00,SSE,155,2.0,7.0,62,0.00,,,-99.99,,2013-05-27 21:12:00,
2013-05-27 16:21:00,72.0,59.0,-100.00,SSE,155,2.0,7.0,62,0.00,,,-99.99,,2013-05-27 21:21:00,
2013-05-27 16:33:00,74.0,58.0,-100.00,NE,45,2.0,6.0,56,0.00,,,-99.99,,2013-05-27 21:33:00,
2013-05-27 16:43:00,74.0,58.0,-100.00,NE,45,2.0,6.0,56,0.00,,,-99.99,,2013-05-27 21:43:00,
2013-05-27 16:53:00,74.0,58.0,-100.00,NE,45,2.0,6.0,56,0.00,,,-99.99,,2013-05-27 21:53:00,
2013-05-27 17:02:00,74.0,58.0,-100.00,NE,45,2.0,6.0,56,0.00,,,-99.99,,2013-05-27 22:02:00,
2013-05-27 17:12:00,74.0,58.0,-100.00,NE,45,2.0,6.0,56,0.00,,,-99.99,,2013-05-27 22:12:00,
2013-05-27 17:22:00,74.0,57.0,-100.00,East,85,2.0,4.0,54,0.00,,,-99.99,,2013-05-27 22:22:00,
2013-05-27 17:33:00,74.0,58.0,-100.00,ENE,70,3.0,6.0,56,0.00,,,-99.99,,2013-05-27 22:33:00,
2013-05-27 17:42:00,74.0,58.0,-100.00,ENE,70,3.0,6.0,56,0.00,,,-99.99,,2013-05-27 22:42:00,
2013-05-27 17:53:00,74.0,58.0,-100.00,ESE,110,2.0,4.0,57,0.00,,,-99.99,,2013-05-27 22:53:00,
2013-05-27 18:02:00,74.0,58.0,-100.00,ESE,110,2.0,4.0,57,0.00,,,-99.99,,2013-05-27 23:02:00,
2013-05-27 18:12:00,73.0,57.0,-100.00,SE,145,2.0,6.0,57,0.00,,,-99.99,,2013-05-27 23:12:00,
2013-05-27 18:22:00,73.0,57.0,-100.00,SE,145,2.0,6.0,57,0.00,,,-99.99,,2013-05-27 23:22:00,
2013-05-27 18:32:00,72.0,57.0,-100.00,NE,50,4.0,6.0,58,0.00,,,-99.99,,2013-05-27 23:32:00,
2013-05-27 18:42:00,72.0,57.0,-100.00,NE,50,4.0,6.0,58,0.00,,,-99.99,,2013-05-27 23:42:00,
2013-05-27 18:52:00,73.0,58.0,-100.00,ESE,110,4.0,7.0,58,0.00,,,-99.99,,2013-05-27 23:52:00,
2013-05-27 19:01:00,73.0,58.0,-100.00,ESE,110,4.0,7.0,58,0.00,,,-99.99,,2013-05-28 00:01:00,
2013-05-27 19:11:00,72.0,58.0,-100.00,SE,130,7.0,8.0,60,0.00,,,-99.99,,2013-05-28 00:11:00,
2013-05-27 19:21:00,72.0,59.0,-100.00,SE,135,4.0,7.0,63,0.00,,,-99.99,,2013-05-28 00:21:00,
2013-05-27 19:31:00,72.0,59.0,-100.00,SE,135,6.0,8.0,65,0.03,,,-99.99,,2013-05-28 00:31:00,
2013-05-27 19:41:00,72.0,59.0,-100.00,SE,135,6.0,8.0,65,0.03,,,-99.99,,2013-05-28 00:41:00,
2013-05-27 19:52:00,72.0,59.0,-100.00,SE,135,6.0,8.0,65,0.03,,,-99.99,,2013-05-28 00:52:00,
2013-05-27 20:01:00,72.0,59.0,-100.00,SE,135,6.0,8.0,65,0.03,,,-99.99,,2013-05-28 01:01:00,
2013-05-27 20:11:00,71.0,60.0,-100.00,SE,135,4.0,9.0,67,0.00,,,-99.99,,2013-05-28 01:11:00,
2013-05-27 20:21:00,71.0,60.0,-100.00,ESE,110,5.0,6.0,67,0.00,,,-99.99,,2013-05-28 01:21:00,
2013-05-27 20:32:00,70.0,60.0,-100.00,SE,125,4.0,6.0,69,0.00,,,-99.99,,2013-05-28 01:32:00,
2013-05-27 20:41:00,70.0,60.0,-100.00,SE,125,4.0,6.0,69,0.00,,,-99.99,,2013-05-28 01:41:00,
2013-05-27 20:52:00,70.0,60.0,-100.00,ESE,110,5.0,6.0,71,0.00,,,-99.99,,2013-05-28 01:52:00,
2013-05-27 21:02:00,70.0,60.0,-100.00,ESE,110,5.0,6.0,71,0.00,,,-99.99,,2013-05-28 02:02:00,
2013-05-27 21:11:00,70.0,60.0,-100.00,ESE,110,5.0,6.0,71,0.00,,,-99.99,,2013-05-28 02:11:00,
2013-05-27 21:21:00,69.0,62.0,-100.00,ESE,120,6.0,11.0,76,0.00,,,-99.99,,2013-05-28 02:21:00,
2013-05-27 21:32:00,69.0,62.0,-100.00,SE,125,6.0,9.0,77,0.00,,,-99.99,,2013-05-28 02:32:00,
2013-05-27 21:42:00,69.0,62.0,-100.00,SE,125,6.0,9.0,77,0.00,,,-99.99,,2013-05-28 02:42:00,
2013-05-27 21:52:00,69.0,62.0,-100.00,SE,135,7.0,10.0,77,0.17,,,-99.99,,2013-05-28 02:52:00,
2013-05-27 22:01:00,69.0,62.0,-100.00,SE,135,7.0,10.0,77,0.17,,,-99.99,,2013-05-28 03:01:00,
2013-05-27 22:11:00,69.0,62.0,-100.00,SE,125,5.0,10.0,78,0.00,,,-99.99,,2013-05-28 03:11:00,
2013-05-27 22:21:00,69.0,62.0,-100.00,SE,135,7.0,9.0,78,0.00,,,-99.99,,2013-05-28 03:21:00,
2013-05-27 22:33:00,68.0,62.0,-100.00,SSE,150,7.0,12.0,80,0.00,,,-99.99,,2013-05-28 03:33:00,
2013-05-27 22:43:00,68.0,62.0,-100.00,SSE,150,7.0,12.0,80,0.00,,,-99.99,,2013-05-28 03:43:00,
2013-05-27 22:53:00,68.0,62.0,-100.00,SE,140,7.0,9.0,80,0.00,,,-99.99,,2013-05-28 03:53:00,
2013-05-27 23:02:00,68.0,62.0,-100.00,SE,140,7.0,9.0,80,0.00,,,-99.99,,2013-05-28 04:02:00,
2013-05-27 23:12:00,68.0,62.0,-100.00,SE,140,7.0,9.0,80,0.00,,,-99.99,,2013-05-28 04:12:00,
2013-05-27 23:22:00,69.0,62.0,-100.00,SSE,150,6.0,9.0,80,0.00,,,-99.99,,2013-05-28 04:22:00,
2013-05-27 23:33:00,68.0,62.0,-100.00,SE,145,4.0,7.0,80,0.00,,,-99.99,,2013-05-28 04:33:00,
2013-05-27 23:43:00,68.0,62.0,-100.00,SE,145,4.0,7.0,80,0.00,,,-99.99,,2013-05-28 04:43:00,
2013-05-27 23:53:00,68.0,62.0,-100.00,SE,130,4.0,6.0,80,0.00,,,-99.99,,2013-05-28 04:53:00,